EW0734 Weather Reports


time (UTC)temp
C
wind
direction
speed
KPH
gust
KPH
rain 1hr
cm
rain 24hr
cm
rain mn
cm
humidity
%
barometer
mb
20260510022525 15 0.0 0.0 0.00 0.00 0.00 82 1008.1
20260510021525 15 0.0 0.0 0.00 0.00 0.00 81 1008.0
20260510020526 15 0.0 0.0 0.00 0.00 0.00 80 1007.9
20260510015526 15 0.0 0.0 0.00 0.00 0.00 79 1007.9
20260510014546 16 0.0 0.0 0.00 0.00 0.00 78 1007.7
20260510013546 16 0.0 0.0 0.00 0.00 0.00 78 1007.5
20260510012525 16 0.0 0.0 0.00 0.00 0.00 76 1007.4
20260510011526 16 0.0 0.0 0.00 0.00 0.00 75 1007.3
20260510010526 17 0.0 0.0 0.00 0.00 0.00 74 1007.3
20260510005526 17 0.0 0.0 0.00 0.00 0.00 72 1007.2
20260510004606 18 0.0 0.0 0.00 0.00 0.00 70 1006.9
20260510003551 18 0.0 0.0 0.00 0.00 0.00 68 1006.9
20260510002525 19 0.0 0.0 0.00 0.00 0.00 65 1006.7
20260510001525 20 0.0 0.0 0.00 0.00 0.00 63 1006.7
20260510000525 20 0.0 0.0 0.00 0.00 0.00 62 1006.7
20260509235525 21 0.0 0.0 0.00 0.00 0.00 61 1006.5
20260509234525 21 0.0 0.0 0.00 0.00 0.00 58 1006.4
20260509233526 22 0.0 1.6 0.00 0.00 0.00 55 1006.4
20260509232525 22 0.0 1.6 0.00 0.00 0.00 54 1006.4
20260509231525 23 0.0 1.6 0.00 0.00 0.00 53 1006.4
20260509230525 23 0.0 1.6 0.00 0.00 0.00 51 1006.4
20260509225525 23 0.0 1.6 0.00 0.00 0.00 52 1006.4
20260509224525 23 0.0 4.8 0.00 0.00 0.00 51 1006.2
20260509223545 23 0.0 4.8 0.00 0.00 0.00 51 1006.3
20260509222525 23 0.0 4.8 0.00 0.00 0.00 50 1006.4
20260509221525 23 0.0 1.6 0.00 0.00 0.00 52 1006.4
20260509220531 23 0.0 1.6 0.00 0.00 0.00 51 1006.4
20260509215525 23 0.0 1.6 0.00 0.00 0.00 51 1006.4
20260509214525 23 0.0 4.8 0.00 0.00 0.00 51 1006.5
20260509213525 23 0.0 1.6 0.00 0.00 0.00 51 1006.5
20260509212546 23 0.0 4.8 0.00 0.00 0.00 50 1006.3
20260509211525 23 0 1.6 8.0 0.00 0.00 0.00 49 1006.3
20260509210525 24 0 1.6 8.0 0.00 0.00 0.00 50 1006.1
20260509205525 24 0 1.6 8.0 0.00 0.00 0.00 51 1006.2
20260509204525 24 0 1.6 8.0 0.00 0.00 0.00 50 1006.2
20260509203525 25 0 1.6 6.4 0.00 0.00 0.00 48 1006.1
20260509202545 25 0.0 3.2 0.00 0.00 0.00 50 1006.1
20260509201526 25 0.0 1.6 0.00 0.00 0.00 51 1006.3
20260509200526 25 0.0 4.8 0.00 0.00 0.00 51 1006.6
20260509195525 25 0.0 3.2 0.00 0.00 0.00 50 1006.6
20260509194605 25 0.0 3.2 0.00 0.00 0.00 52 1006.7
20260509193525 24 0.0 4.8 0.00 0.00 0.00 54 1006.9
20260509192525 23 0.0 4.8 0.00 0.00 0.00 57 1007.2
20260509191525 22 0.0 1.6 0.00 0.00 0.00 59 1007.4
20260509190605 23 0.0 1.6 0.00 0.00 0.00 56 1007.5
20260509185525 23 0.0 1.6 0.00 0.00 0.00 57 1007.6
20260509184545 23 0.0 3.2 0.00 0.00 0.00 58 1007.7
20260509183525 22 0.0 1.6 0.00 0.00 0.00 58 1007.9
20260509182525 22 0.0 1.6 0.00 0.00 0.00 58 1007.9
20260509181605 23 0.0 3.2 0.00 0.00 0.00 56 1008.1
20260509180525 22 0.0 3.2 0.00 0.00 0.00 58 1008.1
20260509175545 22 0.0 3.2 0.00 0.00 0.00 58 1008.1
20260509174524 22 0.0 6.4 0.00 0.00 0.00 58 1008.2
20260509173545 23 0.0 3.2 0.00 0.00 0.00 54 1008.3
20260509172525 23 0.0 3.2 0.00 0.00 0.00 57 1008.4
20260509171545 22 0.0 8.0 0.00 0.00 0.00 58 1008.6
20260509170525 21 0.0 6.4 0.00 0.00 0.00 61 1008.7
20260509165525 21 0.0 1.6 0.00 0.00 0.00 61 1008.7
20260509164525 21 0.0 3.2 0.00 0.00 0.00 59 1008.7
20260509163525 21 0 1.6 6.4 0.00 0.00 0.00 58 1008.8
20260509162524 21 0.0 6.4 0.00 0.00 0.00 59 1008.8
20260509161525 21 0 1.6 17.7 0.00 0.00 0.00 58 1009.0
20260509160525 21 0 1.6 8.0 0.00 0.00 0.00 56 1008.9
20260509155525 22 23 1.6 14.5 0.00 0.00 0.00 55 1009.1
20260509154524 22 23 1.6 14.5 0.00 0.00 0.00 56 1009.1
20260509153524 22 0 1.6 9.7 0.00 0.00 0.00 54 1009.3
20260509152524 22 90 1.6 11.3 0.00 0.00 0.00 55 1009.5
20260509151524 21 90 1.6 8.0 0.00 0.00 0.00 56 1009.3
20260509150524 21 68 3.2 11.3 0.00 0.00 0.00 57 1009.2
20260509145524 21 68 1.6 8.0 0.00 0.00 0.00 61 1009.4
20260509144525 20 0.0 4.8 0.00 0.00 0.00 60 1009.7
20260509143525 20 0.0 3.2 0.00 0.00 0.00 61 1009.8
20260509142524 19 68 1.6 6.4 0.00 0.00 0.00 61 1009.9
20260509141525 18 0.0 4.8 0.00 0.00 0.00 63 1009.9
20260509140524 18 0.0 6.4 0.00 0.00 0.00 65 1010.0
20260509135525 18 0.0 6.4 0.00 0.00 0.00 65 1010.1
20260509134525 17 68 1.6 6.4 0.00 0.00 0.00 66 1010.3
20260509133524 17 0.0 6.4 0.00 0.00 0.00 69 1010.4
20260509132525 16 68 1.6 8.0 0.00 0.00 0.00 71 1010.4
20260509131544 16 68 1.6 9.7 0.00 0.00 0.00 73 1010.4
20260509130527 15 68 1.6 4.8 0.00 0.00 0.00 74 1010.5
20260509125526 15 0.0 1.6 0.00 0.00 0.00 76 1010.5
20260509124526 14 0.0 3.2 0.00 0.00 0.00 77 1010.6
20260509123526 13 68 1.6 8.0 0.00 0.00 0.00 77 1010.6
20260509122531 13 68 1.6 8.0 0.00 0.00 0.00 77 1010.5
20260509121527 13 68 1.6 8.0 0.00 0.00 0.00 78 1010.5
20260509120526 13 68 1.6 8.0 0.00 0.00 0.00 79 1010.5
20260509115530 12 0.0 4.8 0.00 0.00 0.00 79 1010.6
20260509114546 12 68 1.6 4.8 0.00 0.00 0.00 80 1010.6
20260509113527 12 0.0 3.2 0.00 0.00 0.00 81 1010.5
20260509112526 11 0.0 1.6 0.00 0.00 0.00 81 1010.6
20260509111526 11 0.0 1.6 0.00 0.00 0.00 80 1010.6
20260509110527 11 0.0 6.4 0.00 0.00 0.00 80 1010.5
20260509105527 11 0.0 0.0 0.00 0.00 0.00 79 1010.4
20260509105104 -17 0.0 0.0 0.00 0.00 0.00
20260509104025 -17 0.0 0.0 0.00 0.00 0.00
20260509103102 -17 0.0 0.0 0.00 0.00 0.00
20260509102541 -17 0.0 0.0 0.00 0.00 0.00
20260509101526 -17 0.0 0.0 0.00 0.00 0.00
20260509100559 -17 0.0 0.0 0.00 0.00 0.00
20260509100039 -17 0.0 0.0 0.00 0.00 0.00
20260509095026 -17 0.0 0.0 0.00 0.00 0.00
20260509094106 -17 0.0 0.0 0.00 0.00 0.00
20260509093603 -17 0.0 0.0 0.00 0.00 0.00
20260509092525 -17 0.0 0.0 0.00 0.00 0.00
20260509091611 -17 0.0 0.0 0.00 0.00 0.00
20260509091051 -17 0.0 0.0 0.00 0.00 0.00
20260509090024 -17 0.0 0.0 0.00 0.00 0.00
20260509085035 -17 0.0 0.0 0.00 0.00 0.00
20260509084534 -17 0.0 0.0 0.00 0.00 0.00
20260509083525 -17 0.0 0.0 0.00 0.00 0.00
20260509082531 -17 0.0 0.0 0.00 0.00 0.00
20260509082109 -17 0.0 0.0 0.00 0.00 0.00 73
20260509081026 11 0.0 0.0 0.00 0.00 0.00 73 1010.8
20260509080026 12 0.0 0.0 0.00 0.00 0.00 72 1010.9
20260509075027 12 0.0 0.0 0.00 0.00 0.00 73 1010.9
20260509074026 12 0.0 0.0 0.00 0.00 0.00 72 1011.0
20260509073026 11 0.0 1.6 0.00 0.00 0.00 73 1011.1
20260509072026 11 0.0 1.6 0.00 0.00 0.00 73 1011.1
20260509071026 10 0.0 1.6 0.00 0.00 0.00 75 1011.1
20260509070026 10 0.0 1.6 0.00 0.00 0.00 76 1011.2
20260509065026 10 0.0 0.0 0.00 0.00 0.00 76 1011.3
20260509064025 10 0.0 0.0 0.00 0.00 0.00 75 1011.4
20260509063025 10 0.0 0.0 0.00 0.00 0.00 76 1011.3
20260509062025 10 0.0 1.6 0.00 0.00 0.00 76 1011.4
20260509061026 10 0.0 0.0 0.00 0.00 0.00 75 1011.4
20260509060026 10 0.0 0.0 0.00 0.00 0.00 75 1011.4
20260509055030 10 0.0 0.0 0.00 0.00 0.00 74 1011.3
20260509054026 10 0.0 0.0 0.00 0.00 0.00 73 1011.2
20260509053025 10 0.0 0.0 0.00 0.00 0.00 73 1011.2
20260509052026 10 0.0 0.0 0.00 0.00 0.00 72 1011.2
20260509051026 10 0.0 0.0 0.00 0.00 0.00 72 1011.3
20260509050026 10 0.0 0.0 0.00 0.00 0.00 71 1011.3
20260509045025 10 0.0 0.0 0.00 0.00 0.00 71 1011.2
20260509044026 11 0.0 0.0 0.00 0.00 0.00 70 1011.2
20260509043026 11 0.0 0.0 0.00 0.00 0.00 69 1011.2
20260509042046 11 0.0 0.0 0.00 0.00 0.00 69 1011.2
20260509041025 11 0.0 0.0 0.00 0.00 0.00 68 1011.3
20260509040032 11 0.0 0.0 0.00 0.00 0.00 67 1011.4
20260509035026 11 0.0 0.0 0.00 0.00 0.00 66 1011.5
20260509034025 12 0.0 0.0 0.00 0.00 0.00 66 1011.6
20260509033026 12 0.0 0.0 0.00 0.00 0.00 64 1011.7
20260509032025 12 0.0 0.0 0.00 0.00 0.00 64 1011.6
20260509031025 12 0.0 0.0 0.00 0.00 0.00 63 1011.6
20260509030026 12 0.0 0.0 0.00 0.00 0.00 63 1011.5
20260509025025 12 0.0 0.0 0.00 0.00 0.00 62 1011.6
20260509024026 12 0.0 0.0 0.00 0.00 0.00 62 1011.7